COSMOS 1275 DEB

Satellite information

Favourite Embed

Satellite Type and Status

DEBRISIN ORBIT

Key statistics

Satellite COSMOS 1275 DEB at a glance.

Uptime

16208

Days in orbit

Revolutions

≈ 14.2

Per day

Orbit

LEO

Low Earth Orbit

Inclination

83.0

Latest

Satellite identification and parameters

Extended collection of information and parameters for COSMOS 1275 DEB.

Object identification

Identified? True

Debris? True

Object name: COSMOS 1275 DEB

International designator: 1981-053LX

Object number (NORAD): 18637

Object ID (CCSDS): 18637

Country: COMMONWEALTH OF INDEPENDENT STATES (CIS)

Current information (Y/N): Y

RCS size: SMALL

Orbital parameters

Period: 101.124 minutes

Inclination: 82.959 deg

SMA: 7190.023 km

Apoapsis: 847.416 km

Periapsis: 776.359 km

RAAN: 99.427 deg

Eccentricy: 0.00494137

Argument of periapsis: 146.6586 deg

Mean anomaly: 213.7727 deg

Mean motion: 14.23991457 rev/day

Mean motion (dot): 0.00007714 rev/day2

B* drag term: 0.0033110189 1/REarth

Two-line elements (TLE)

Creation date: Oct. 18, 2025, 2:17 a.m.

Reference frame: TEME

Reference center: EARTH

Epoch: Oct. 17, 2025, 5:33 p.m. UTC

TLE line 0: 0 COSMOS 1275 DEB

TLE line 1: 1 18637U 81053LX 25290.73126891 .00007714 00000-0 33110-2 0 9996

TLE line 2: 2 18637 82.9590 99.4270 0049414 146.6586 213.7727 14.23991457 62674

Live tracking on map

Real-time ground track for satellite COSMOS 1275 DEB.

In-orbit conjunctions

A list of the most updated potential collisions computed for object COSMOS 1275 DEB.

Target Orbit TCA Probability of collision Miss distance Type
CZ-6A DEB SSO 2025-05-30 01:56:51 0.0002615155 160.0 (m) DEBRIS
FENGYUN 1C DEB SSO 2024-08-12 13:56:05 0.000110429 154.0 (m) DEBRIS
FENGYUN 1C DEB SSO 2024-08-09 17:24:12 0.0001104022 156.0 (m) DEBRIS

Associated space launch

Navigation satellite providing location information for the Tsiklon-B navigation system

COSMOS 1275 DEB was lifted into orbit during the mission ‘Kosmos-3M | Parus 27’, on board a Kosmos-3M space rocket.

The launch took place on June 4, 1981, 3:41 p.m. from 132/2.

For more information about the launch, click the button.

Launch to space Kosmos-3M | Parus 27
Kosmos-3M | Parus 27

Agency: N/A

Status: Launch Successful

Launch date: June 4, 1981, 3:41 p.m. UTC

Rocket: Kosmos-3M

Launch pad: 132/2

Location: Plesetsk Cosmodrome, Russian Federation

...

Latest news about this satellite

There are no fresh news available about this satellite. Check back as we update our databases every day.


Newsletter sign-up

Weekly statistics, charts and insights to help you stay on top of the space industry.